When you browse on this site, cookies collect data to enhance your experience and personalize the content and advertising you see.
Visit our Privacy Policy to learn more. By continuing to use the site, you agree to this use of cookies and data.
EN

Hourly Weather Gogolevskiy

Today, 24 September, Thursday

Time Temperature Precipitation Wind Pressure Humidity
00:00 +16°C° 0 mm 1 mps 756 mmHg 37%
01:00 +15°C° 0 mm 1 mps 756 mmHg 38%
02:00 +15°C° 0 mm 1 mps 756 mmHg 39%
03:00 +15°C° 0 mm 1 mps 757 mmHg 41%
04:00 +15°C° 0 mm 1 mps 757 mmHg 42%
05:00 +14°C° 0 mm 2 mps 757 mmHg 43%
06:00 +14°C° 0 mm 2 mps 756 mmHg 45%
07:00 +16°C° 0 mm 2 mps 757 mmHg 39%
08:00 +19°C° 0 mm 2 mps 757 mmHg 34%
09:00 +21°C° 0 mm 2 mps 757 mmHg 29%
10:00 +24°C° 0 mm 3 mps 757 mmHg 26%
11:00 +25°C° 0 mm 3 mps 757 mmHg 23%
12:00 +27°C° 0 mm 3 mps 757 mmHg 20%
13:00 +27°C° 0 mm 3 mps 756 mmHg 20%
14:00 +28°C° 0 mm 3 mps 756 mmHg 20%
15:00 +28°C° 0 mm 3 mps 756 mmHg 19%
16:00 +27°C° 0 mm 3 mps 756 mmHg 22%
17:00 +25°C° 0 mm 3 mps 756 mmHg 25%
18:00 +23°C° 0 mm 2 mps 755 mmHg 27%
19:00 +21°C° 0 mm 3 mps 756 mmHg 29%
20:00 +20°C° 0 mm 3 mps 756 mmHg 31%
21:00 +19°C° 0 mm 3 mps 756 mmHg 33%
22:00 +18°C° 0 mm 3 mps 756 mmHg 37%
23:00 +18°C° 0 mm 4 mps 756 mmHg 41%

Tomorrow, 25 September, Friday

Time Temperature Precipitation Wind Pressure Humidity
00:00 +17°C° 0 mm 4 mps 756 mmHg 45%
01:00 +17°C° 0 mm 3 mps 756 mmHg 46%
02:00 +16°C° 0 mm 3 mps 756 mmHg 48%
03:00 +14°C° 0 mm 3 mps 756 mmHg 49%
04:00 +14°C° 0 mm 3 mps 756 mmHg 51%
05:00 +14°C° 0 mm 3 mps 756 mmHg 52%
06:00 +13°C° 0 mm 3 mps 756 mmHg 53%
07:00 +17°C° 0 mm 3 mps 756 mmHg 47%
08:00 +19°C° 0 mm 4 mps 756 mmHg 41%
09:00 +21°C° 0 mm 4 mps 756 mmHg 35%
10:00 +23°C° 0 mm 5 mps 756 mmHg 31%
11:00 +26°C° 0 mm 5 mps 756 mmHg 27%
12:00 +28°C° 0 mm 6 mps 755 mmHg 23%
13:00 +28°C° 0 mm 6 mps 755 mmHg 23%
14:00 +28°C° 0 mm 6 mps 755 mmHg 22%
15:00 +28°C° 0 mm 6 mps 755 mmHg 22%
16:00 +27°C° 0 mm 5 mps 755 mmHg 25%
17:00 +25°C° 0 mm 5 mps 754 mmHg 28%
18:00 +22°C° 0 mm 4 mps 754 mmHg 31%
19:00 +21°C° 0 mm 4 mps 754 mmHg 33%
20:00 +20°C° 0 mm 5 mps 755 mmHg 36%
21:00 +19°C° 0 mm 5 mps 755 mmHg 39%
22:00 +19°C° 0 mm 5 mps 755 mmHg 40%
23:00 +19°C° 0 mm 5 mps 755 mmHg 42%

Day after tomorrow, 26 September, Saturday

Time Temperature Precipitation Wind Pressure Humidity
00:00 +17°C° 0 mm 5 mps 755 mmHg 44%
01:00 +17°C° 0 mm 5 mps 755 mmHg 44%
02:00 +17°C° 0 mm 5 mps 755 mmHg 45%
03:00 +16°C° 0 mm 5 mps 755 mmHg 45%
04:00 +17°C° 0 mm 5 mps 755 mmHg 43%
05:00 +17°C° 0 mm 5 mps 755 mmHg 41%
06:00 +17°C° 0 mm 5 mps 755 mmHg 39%
07:00 +20°C° 0 mm 6 mps 755 mmHg 35%
08:00 +21°C° 0 mm 6 mps 755 mmHg 31%
09:00 +22°C° 0 mm 7 mps 755 mmHg 27%
10:00 +24°C° 0 mm 7 mps 755 mmHg 26%
11:00 +26°C° 0 mm 7 mps 755 mmHg 25%
12:00 +27°C° 0 mm 8 mps 755 mmHg 24%
13:00 +27°C° 0 mm 8 mps 755 mmHg 26%
14:00 +27°C° 0 mm 8 mps 755 mmHg 28%
15:00 +26°C° 0 mm 8 mps 755 mmHg 31%
16:00 +24°C° 0 mm 7 mps 755 mmHg 32%
17:00 +23°C° 0 mm 7 mps 755 mmHg 32%
18:00 +23°C° 0 mm 6 mps 755 mmHg 33%
19:00 +22°C° 0 mm 6 mps 755 mmHg 33%
20:00 +21°C° 0 mm 7 mps 756 mmHg 32%
21:00 +20°C° 0 mm 7 mps 756 mmHg 32%
22:00 +18°C° 0 mm 7 mps 756 mmHg 34%
23:00 +17°C° 0 mm 7 mps 756 mmHg 37%

27 September, Sunday

Time Temperature Precipitation Wind Pressure Humidity
00:00 +16°C° 0 mm 6 mps 757 mmHg 40%
01:00 +15°C° 0 mm 6 mps 757 mmHg 41%
02:00 +14°C° 0 mm 6 mps 757 mmHg 42%
03:00 +14°C° 0 mm 6 mps 757 mmHg 43%
04:00 +13°C° 0 mm 6 mps 757 mmHg 43%
05:00 +13°C° 0 mm 6 mps 757 mmHg 43%
06:00 +11°C° 0 mm 6 mps 757 mmHg 42%
07:00 +14°C° 0 mm 7 mps 757 mmHg 39%
08:00 +16°C° 0 mm 7 mps 757 mmHg 36%
09:00 +17°C° 0 mm 8 mps 757 mmHg 34%
10:00 +20°C° 0 mm 8 mps 757 mmHg 31%
11:00 +22°C° 0 mm 9 mps 757 mmHg 28%
12:00 +24°C° 0 mm 9 mps 757 mmHg 25%
13:00 +24°C° 0 mm 9 mps 756 mmHg 25%
14:00 +24°C° 0 mm 9 mps 756 mmHg 25%
15:00 +24°C° 0 mm 9 mps 756 mmHg 25%
16:00 +23°C° 0 mm 8 mps 756 mmHg 26%
17:00 +22°C° 0 mm 8 mps 756 mmHg 27%
18:00 +21°C° 0 mm 7 mps 756 mmHg 28%
19:00 +20°C° 0 mm 7 mps 756 mmHg 31%
20:00 +18°C° 0 mm 7 mps 756 mmHg 33%
21:00 +18°C° 0 mm 7 mps 756 mmHg 36%
22:00 +17°C° 0 mm 7 mps 757 mmHg 39%
23:00 +16°C° 0 mm 7 mps 757 mmHg 41%

28 September, Monday

Time Temperature Precipitation Wind Pressure Humidity
00:00 +16°C° 0 mm 7 mps 757 mmHg 44%
01:00 +15°C° 0 mm 7 mps 757 mmHg 46%
02:00 +15°C° 0 mm 6 mps 757 mmHg 49%
03:00 +14°C° 0 mm 6 mps 757 mmHg 51%
04:00 +14°C° 0 mm 7 mps 757 mmHg 52%
05:00 +12°C° 0 mm 7 mps 758 mmHg 52%
06:00 +12°C° 0 mm 7 mps 758 mmHg 53%
07:00 +14°C° 0.2 mm 7 mps 758 mmHg 53%
08:00 +14°C° 0.2 mm 6 mps 758 mmHg 54%
09:00 +14°C° 0.2 mm 5 mps 758 mmHg 54%
10:00 +14°C° 0.6 mm 6 mps 758 mmHg 59%
11:00 +14°C° 0.6 mm 6 mps 759 mmHg 63%
12:00 +14°C° 0.6 mm 7 mps 759 mmHg 67%
13:00 +15°C° 0 mm 7 mps 759 mmHg 64%
14:00 +16°C° 0 mm 7 mps 759 mmHg 61%
15:00 +17°C° 0 mm 7 mps 759 mmHg 58%
16:00 +17°C° 0 mm 7 mps 759 mmHg 55%
17:00 +17°C° 0 mm 6 mps 759 mmHg 53%
18:00 +17°C° 0 mm 6 mps 759 mmHg 50%
19:00 +16°C° 0 mm 6 mps 759 mmHg 50%
20:00 +16°C° 0 mm 6 mps 759 mmHg 50%
21:00 +15°C° 0 mm 6 mps 759 mmHg 50%
22:00 +15°C° 0 mm 5 mps 759 mmHg 50%
23:00 +15°C° 0 mm 5 mps 759 mmHg 51%

29 September, Tuesday

Time Temperature Precipitation Wind Pressure Humidity
00:00 +14°C° 0 mm 5 mps 760 mmHg 51%
01:00 +14°C° 0 mm 5 mps 759 mmHg 52%
02:00 +13°C° 0 mm 5 mps 759 mmHg 53%
03:00 +13°C° 0 mm 6 mps 759 mmHg 54%
04:00 +11°C° 0 mm 6 mps 759 mmHg 56%
05:00 +11°C° 0 mm 6 mps 759 mmHg 59%
06:00 +11°C° 0 mm 6 mps 760 mmHg 61%
07:00 +12°C° 0 mm 7 mps 759 mmHg 56%
08:00 +14°C° 0 mm 7 mps 759 mmHg 51%
09:00 +15°C° 0 mm 7 mps 759 mmHg 45%
10:00 +17°C° 0 mm 8 mps 759 mmHg 39%
11:00 +20°C° 0 mm 8 mps 758 mmHg 33%
12:00 +21°C° 0 mm 8 mps 758 mmHg 27%
13:00 +22°C° 0 mm 9 mps 757 mmHg 26%
14:00 +23°C° 0 mm 9 mps 757 mmHg 24%
15:00 +23°C° 0 mm 9 mps 756 mmHg 23%
16:00 +22°C° 0 mm 8 mps 756 mmHg 24%
17:00 +21°C° 0 mm 7 mps 755 mmHg 25%
18:00 +20°C° 0 mm 7 mps 755 mmHg 25%
19:00 +20°C° 0 mm 7 mps 755 mmHg 28%
20:00 +18°C° 0 mm 7 mps 755 mmHg 30%
21:00 +17°C° 0 mm 8 mps 755 mmHg 32%
22:00 +17°C° 0 mm 8 mps 755 mmHg 34%
23:00 +16°C° 0 mm 8 mps 755 mmHg 36%
Show more